DLH278 EDDF-EDDH

Flight info

Callsign DLH278
Flight time 0h 47m
Altitude 35000
Route MARUN7F/25C MARUN Y150 TOLGI DCT SAS/N0484F340 P605 NOLGO NOLGO3S
Aircraft A359/H-SDE2E3GHIJ3J4J5LM1ORWXY/LB1D1

Departure

Time 2026-05-07 13:47
Airport Frankfurt Main Airport (EDDF)

Arrival

Time 2026-05-07 14:34
Airport Hamburg Helmut Schmidt Airport (EDDH)
Time Latitude Longitude Altitude Speed Heading
2026-05-07 13:00 50.04702 8.57080 374 ft 0 kts 114°
2026-05-07 13:35 50.04706 8.57065 373 ft 4 kts 115°
2026-05-07 13:35 50.04717 8.57028 374 ft 4 kts 115°
2026-05-07 13:36 50.04727 8.56997 372 ft 4 kts 133°
2026-05-07 13:36 50.04738 8.56981 371 ft 3 kts 178°
2026-05-07 13:36 50.04750 8.56986 371 ft 4 kts 223°
2026-05-07 13:36 50.04769 8.57013 372 ft 4 kts 216°
2026-05-07 13:37 50.04783 8.57027 371 ft 1 kts 205°
2026-05-07 13:37 50.04785 8.57028 371 ft 0 kts 204°
2026-05-07 13:40 50.04767 8.57016 375 ft 6 kts 204°
2026-05-07 13:41 50.04708 8.56975 373 ft 13 kts 203°
2026-05-07 13:41 50.04615 8.56920 375 ft 15 kts 195°
2026-05-07 13:41 50.04507 8.56877 371 ft 17 kts 192°
2026-05-07 13:41 50.04387 8.56837 371 ft 19 kts 192°
2026-05-07 13:42 50.04284 8.56878 376 ft 14 kts 109°
2026-05-07 13:42 50.04304 8.57020 373 ft 15 kts 71°
2026-05-07 13:42 50.04340 8.57182 373 ft 17 kts 68°
2026-05-07 13:42 50.04386 8.57362 375 ft 19 kts 68°
2026-05-07 13:43 50.04436 8.57569 374 ft 21 kts 70°
2026-05-07 13:43 50.04490 8.57799 372 ft 23 kts 70°
2026-05-07 13:43 50.04548 8.58041 374 ft 25 kts 70°
2026-05-07 13:43 50.04610 8.58301 377 ft 25 kts 70°
2026-05-07 13:44 50.04651 8.58522 375 ft 9 kts 107°
2026-05-07 13:44 50.04648 8.58533 377 ft 0 kts 116°
2026-05-07 13:44 50.04644 8.58540 377 ft 3 kts 125°
2026-05-07 13:44 50.04617 8.58570 373 ft 6 kts 150°
2026-05-07 13:45 50.04575 8.58599 379 ft 7 kts 158°
2026-05-07 13:45 50.04532 8.58623 379 ft 6 kts 170°
2026-05-07 13:45 50.04498 8.58603 380 ft 5 kts 221°
2026-05-07 13:45 50.04475 8.58542 379 ft 7 kts 246°
2026-05-07 13:46 50.04473 8.58534 380 ft 1 kts 247°
2026-05-07 13:46 50.04427 8.58364 377 ft 48 kts 248°
2026-05-07 13:46 50.04222 8.57504 375 ft 120 kts 249°
2026-05-07 13:46 50.03838 8.55999 457 ft 171 kts 246°
2026-05-07 13:47 50.03375 8.54285 1180 ft 176 kts 251°
2026-05-07 13:47 50.02902 8.52465 2040 ft 184 kts 249°
2026-05-07 13:47 50.02371 8.50652 2852 ft 185 kts 246°
2026-05-07 13:47 50.01591 8.49067 3628 ft 189 kts 224°
2026-05-07 13:48 50.00375 8.48041 4208 ft 202 kts 197°
2026-05-07 13:48 49.98968 8.47656 4758 ft 213 kts 188°
2026-05-07 13:48 49.97461 8.47362 4982 ft 229 kts 189°
2026-05-07 13:48 49.95826 8.46932 4994 ft 243 kts 195°
2026-05-07 13:49 49.94189 8.46229 4989 ft 248 kts 198°
2026-05-07 13:49 49.92551 8.45324 4985 ft 248 kts 208°
2026-05-07 13:49 49.91259 8.43664 4987 ft 243 kts 236°
2026-05-07 13:49 49.90651 8.41267 5145 ft 240 kts 264°
2026-05-07 13:50 49.90816 8.38773 5684 ft 241 kts 290°
2026-05-07 13:50 49.91724 8.36581 6589 ft 241 kts 316°
2026-05-07 13:50 49.93112 8.35218 7566 ft 243 kts 335°
2026-05-07 13:50 49.94736 8.34178 8290 ft 259 kts 337°
2026-05-07 13:51 49.96437 8.33115 9176 ft 267 kts 336°
2026-05-07 13:51 49.98193 8.31988 10139 ft 273 kts 336°
2026-05-07 13:51 50.00000 8.30817 10779 ft 291 kts 336°
2026-05-07 13:51 50.01909 8.29573 11230 ft 313 kts 336°
2026-05-07 13:52 50.04053 8.28455 11720 ft 334 kts 348°
2026-05-07 13:52 50.06394 8.28555 12445 ft 347 kts 12°
2026-05-07 13:52 50.08727 8.29689 13282 ft 355 kts 18°
2026-05-07 13:52 50.11087 8.30971 14097 ft 361 kts 18°
2026-05-07 13:53 50.13472 8.32250 14840 ft 367 kts 17°
2026-05-07 13:53 50.15922 8.33551 15607 ft 372 kts 17°
2026-05-07 13:53 50.18398 8.34858 16391 ft 377 kts 17°
2026-05-07 13:53 50.20870 8.36162 17147 ft 382 kts 17°
2026-05-07 13:54 50.23408 8.37499 17964 ft 387 kts 17°
2026-05-07 13:54 50.25998 8.38864 18729 ft 392 kts 17°
2026-05-07 13:54 50.28581 8.40226 19500 ft 395 kts 17°
2026-05-07 13:54 50.31203 8.41619 20236 ft 400 kts 18°
2026-05-07 13:55 50.33879 8.43081 20998 ft 404 kts 18°
2026-05-07 13:55 50.36517 8.44528 21714 ft 408 kts 18°
2026-05-07 13:55 50.39219 8.46008 22433 ft 413 kts 18°
2026-05-07 13:55 50.41938 8.47497 23162 ft 417 kts 18°
2026-05-07 13:56 50.44709 8.49015 23818 ft 422 kts 18°
2026-05-07 13:56 50.47467 8.50527 24416 ft 426 kts 18°
2026-05-07 13:56 50.50297 8.51986 25020 ft 429 kts 15°
2026-05-07 13:56 50.53184 8.53332 25636 ft 433 kts 15°
2026-05-07 13:57 50.56078 8.54682 26237 ft 436 kts 15°
2026-05-07 13:57 50.59007 8.56065 26832 ft 440 kts 15°
2026-05-07 13:57 50.61939 8.57462 27437 ft 443 kts 16°
2026-05-07 13:57 50.64877 8.58868 28027 ft 447 kts 16°
2026-05-07 13:58 50.67878 8.60309 28616 ft 450 kts 16°
2026-05-07 13:58 50.70873 8.61751 29161 ft 454 kts 16°
2026-05-07 13:58 50.73876 8.63198 29689 ft 458 kts 16°
2026-05-07 13:58 50.76958 8.64737 30218 ft 461 kts 18°
2026-05-07 13:59 50.79919 8.66812 30660 ft 466 kts 28°
2026-05-07 13:59 50.82620 8.69660 31067 ft 471 kts 38°
2026-05-07 13:59 50.84981 8.73243 31472 ft 475 kts 48°
2026-05-07 13:59 50.87124 8.77412 31930 ft 477 kts 51°
2026-05-07 14:00 50.89154 8.81607 32311 ft 481 kts 52°
2026-05-07 14:00 50.91169 8.85858 32682 ft 484 kts 52°
2026-05-07 14:00 50.93162 8.90089 33020 ft 487 kts 52°
2026-05-07 14:00 50.95222 8.94456 33378 ft 490 kts 52°
2026-05-07 14:01 50.97290 8.98822 33840 ft 490 kts 52°
2026-05-07 14:01 50.99396 9.03271 34032 ft 493 kts 52°
2026-05-07 14:01 51.01424 9.07557 34048 ft 492 kts 52°
2026-05-07 14:02 51.04884 9.14873 34050 ft 492 kts 52°
2026-05-07 14:02 51.09355 9.23122 34054 ft 491 kts 40°
2026-05-07 14:03 51.15081 9.28927 34051 ft 488 kts 22°
2026-05-07 14:03 51.21563 9.31860 34045 ft 487 kts 12°
2026-05-07 14:04 51.28188 9.34144 34045 ft 487 kts 11°
2026-05-07 14:04 51.34787 9.36368 34045 ft 487 kts 11°
2026-05-07 14:05 51.41515 9.38689 34048 ft 487 kts 12°
2026-05-07 14:05 51.48124 9.41001 34049 ft 486 kts 12°
2026-05-07 14:06 51.54772 9.43336 34050 ft 486 kts 12°
2026-05-07 14:06 51.61371 9.45659 34051 ft 486 kts 12°
2026-05-07 14:07 51.68009 9.48002 34053 ft 486 kts 12°
2026-05-07 14:07 51.74582 9.50328 34058 ft 486 kts 12°
2026-05-07 14:08 51.81185 9.52763 34058 ft 486 kts 16°
2026-05-07 14:08 51.87539 9.57079 34063 ft 486 kts 26°
2026-05-07 14:09 51.93550 9.61993 34064 ft 487 kts 27°
2026-05-07 14:09 51.99581 9.67037 34066 ft 487 kts 27°
2026-05-07 14:10 52.05546 9.72031 34069 ft 487 kts 27°
2026-05-07 14:10 52.11563 9.77063 34064 ft 487 kts 27°
2026-05-07 14:11 52.17640 9.82152 34072 ft 487 kts 27°
2026-05-07 14:11 52.23705 9.87167 33840 ft 486 kts 24°
2026-05-07 14:11 52.26835 9.89059 33578 ft 486 kts 17°
2026-05-07 14:12 52.30090 9.90634 33302 ft 487 kts 15°
2026-05-07 14:12 52.33395 9.92134 33025 ft 488 kts 15°
2026-05-07 14:12 52.36647 9.93563 32761 ft 488 kts 14°
2026-05-07 14:12 52.39960 9.95003 32492 ft 489 kts 14°
2026-05-07 14:13 52.43260 9.96437 32177 ft 488 kts 14°
2026-05-07 14:13 52.46532 9.97867 31325 ft 488 kts 14°
2026-05-07 14:13 52.49810 9.99309 30380 ft 490 kts 14°
2026-05-07 14:13 52.53013 10.00726 29549 ft 489 kts 14°
2026-05-07 14:14 52.56347 10.02206 28883 ft 482 kts 14°
2026-05-07 14:14 52.59554 10.03628 28255 ft 476 kts 14°
2026-05-07 14:14 52.62731 10.05048 27619 ft 471 kts 14°
2026-05-07 14:14 52.65888 10.06464 26970 ft 466 kts 14°
2026-05-07 14:15 52.68998 10.07861 26338 ft 462 kts 14°
2026-05-07 14:15 52.72094 10.09252 25724 ft 458 kts 14°
2026-05-07 14:15 52.75133 10.10616 25101 ft 455 kts 14°
2026-05-07 14:15 52.78157 10.11549 24499 ft 450 kts
2026-05-07 14:16 52.81337 10.11818 23864 ft 446 kts
2026-05-07 14:16 52.84422 10.11955 23191 ft 443 kts
2026-05-07 14:16 52.87487 10.12076 22637 ft 437 kts
2026-05-07 14:16 52.90493 10.12186 22260 ft 417 kts
2026-05-07 14:17 52.93282 10.12286 21587 ft 395 kts 360°
2026-05-07 14:17 52.95966 10.12378 20921 ft 378 kts 360°
2026-05-07 14:17 52.98603 10.12466 20287 ft 381 kts 360°
2026-05-07 14:17 53.01257 10.12554 19737 ft 380 kts 360°
2026-05-07 14:18 53.03874 10.12642 19162 ft 370 kts 360°
2026-05-07 14:18 53.06463 10.12728 18593 ft 366 kts 360°
2026-05-07 14:18 53.08966 10.12809 17999 ft 364 kts 360°
2026-05-07 14:18 53.11512 10.12890 17416 ft 361 kts 360°
2026-05-07 14:19 53.14021 10.12972 16850 ft 358 kts
2026-05-07 14:19 53.16498 10.13054 16287 ft 355 kts
2026-05-07 14:19 53.18935 10.13135 15757 ft 351 kts
2026-05-07 14:19 53.21384 10.13217 15313 ft 352 kts
2026-05-07 14:20 53.22192 10.13243 15160 ft 352 kts
2026-05-07 14:20 53.24826 10.13331 14597 ft 350 kts
2026-05-07 14:20 53.27257 10.13413 14090 ft 348 kts
2026-05-07 14:20 53.29644 10.13493 13567 ft 345 kts
2026-05-07 14:21 53.32026 10.13574 13018 ft 342 kts
2026-05-07 14:21 53.34404 10.13654 12485 ft 340 kts
2026-05-07 14:21 53.36745 10.13653 11940 ft 338 kts 357°
2026-05-07 14:21 53.39056 10.12888 11432 ft 335 kts 339°
2026-05-07 14:22 53.41057 10.11007 11134 ft 325 kts 322°
2026-05-07 14:22 53.42676 10.08381 10722 ft 319 kts 311°
2026-05-07 14:22 53.44146 10.05602 9937 ft 315 kts 312°
2026-05-07 14:22 53.45598 10.02897 8980 ft 309 kts 313°
2026-05-07 14:23 53.47023 10.00245 8001 ft 303 kts 313°
2026-05-07 14:23 53.48352 9.97616 7092 ft 299 kts 307°
2026-05-07 14:23 53.49108 9.94281 6133 ft 305 kts 277°
2026-05-07 14:23 53.48805 9.90751 5187 ft 318 kts 247°
2026-05-07 14:24 53.47526 9.87727 4445 ft 316 kts 223°
2026-05-07 14:24 53.46005 9.85306 4060 ft 290 kts 223°
2026-05-07 14:24 53.44651 9.83022 3960 ft 262 kts 225°
2026-05-07 14:24 53.43461 9.80865 3990 ft 246 kts 226°
2026-05-07 14:25 53.42341 9.78761 3989 ft 242 kts 227°
2026-05-07 14:25 53.41222 9.76601 3978 ft 238 kts 228°
2026-05-07 14:25 53.40183 9.74558 3987 ft 225 kts 228°
2026-05-07 14:25 53.39368 9.72414 3989 ft 222 kts 251°
2026-05-07 14:26 53.39290 9.69861 3999 ft 214 kts 285°
2026-05-07 14:26 53.40013 9.67768 4006 ft 205 kts 317°
2026-05-07 14:26 53.41051 9.66152 4000 ft 203 kts 324°
2026-05-07 14:26 53.42314 9.65305 3992 ft 197 kts 359°
2026-05-07 14:27 53.43610 9.65784 3998 ft 191 kts 28°
2026-05-07 14:27 53.44780 9.66850 3993 ft 191 kts 31°
2026-05-07 14:27 53.45923 9.67835 3983 ft 180 kts 29°
2026-05-07 14:27 53.47011 9.68734 3983 ft 166 kts 28°
2026-05-07 14:28 53.47984 9.69624 3981 ft 152 kts 36°
2026-05-07 14:28 53.48792 9.70625 3983 ft 138 kts 41°
2026-05-07 14:28 53.49502 9.71686 3928 ft 136 kts 46°
2026-05-07 14:28 53.50139 9.72823 3779 ft 134 kts 50°
2026-05-07 14:29 53.50753 9.74018 3573 ft 134 kts 51°
2026-05-07 14:29 53.51343 9.75199 3384 ft 133 kts 52°
2026-05-07 14:29 53.51935 9.76391 3198 ft 131 kts 52°
2026-05-07 14:29 53.52514 9.77551 3015 ft 132 kts 52°
2026-05-07 14:30 53.53099 9.78729 2831 ft 130 kts 52°
2026-05-07 14:30 53.53677 9.79893 2642 ft 130 kts 52°
2026-05-07 14:30 53.54239 9.81027 2486 ft 126 kts 51°
2026-05-07 14:30 53.54803 9.82155 2307 ft 125 kts 52°
2026-05-07 14:31 53.55358 9.83281 2151 ft 128 kts 53°
2026-05-07 14:31 53.55763 9.84108 2048 ft 145 kts 51°
2026-05-07 14:31 53.56696 9.85955 1932 ft 161 kts 51°
2026-05-07 14:31 53.57410 9.87331 1831 ft 150 kts 50°
2026-05-07 14:32 53.58063 9.88610 1615 ft 138 kts 49°
2026-05-07 14:32 53.58625 9.89836 1333 ft 130 kts 54°
2026-05-07 14:32 53.58980 9.90632 1184 ft 128 kts 51°
2026-05-07 14:32 53.59532 9.91784 962 ft 126 kts 52°
2026-05-07 14:33 53.60086 9.92903 758 ft 121 kts 50°
2026-05-07 14:33 53.60622 9.93971 581 ft 119 kts 49°
2026-05-07 14:33 53.61138 9.95031 398 ft 115 kts 50°
2026-05-07 14:33 53.61660 9.96005 220 ft 108 kts 43°
2026-05-07 14:34 53.62114 9.96966 87 ft 100 kts 48°
2026-05-07 14:34 53.62529 9.97773 47 ft 79 kts 52°
2026-05-07 14:34 53.62704 9.98134 48 ft 12 kts 50°
2026-05-07 14:34 53.62820 9.98373 50 ft 48 kts 51°
2026-05-07 14:35 53.63033 9.98805 52 ft 35 kts 50°
2026-05-07 14:35 53.63064 9.98873 52 ft 5 kts 53°
2026-05-07 14:35 53.63173 9.99102 53 ft 32 kts 47°
2026-05-07 14:35 53.63195 9.99142 53 ft 0 kts 48°
2026-05-07 14:36 53.63209 9.99168 53 ft 8 kts 49°
2026-05-07 14:36 53.63247 9.99250 51 ft 19 kts 54°
2026-05-07 14:36 53.63290 9.99536 52 ft 18 kts 97°
2026-05-07 14:36 53.63286 9.99572 49 ft 3 kts 99°
2026-05-07 14:37 53.63284 9.99591 50 ft 0 kts 99°
2026-05-07 14:37 53.63276 9.99697 55 ft 9 kts 91°
2026-05-07 14:37 53.63300 9.99802 49 ft 10 kts 57°
2026-05-07 14:38 53.63334 9.99872 51 ft 9 kts 49°
2026-05-07 14:38 53.63379 9.99958 52 ft 11 kts 49°
2026-05-07 14:38 53.63417 10.00040 51 ft 10 kts 58°
2026-05-07 14:38 53.63414 10.00151 47 ft 10 kts 122°
2026-05-07 14:39 53.63347 10.00196 54 ft 11 kts 174°
2026-05-07 14:39 53.63300 10.00205 54 ft 7 kts 169°
2026-05-07 14:39 53.63283 10.00242 53 ft 4 kts 101°
2026-05-07 14:39 53.63279 10.00302 55 ft 6 kts 92°
2026-05-07 14:40 53.63279 10.00328 55 ft 0 kts 88°
2026-05-07 14:40 53.63280 10.00343 55 ft 3 kts 88°
2026-05-07 14:40 53.63280 10.00355 55 ft 0 kts 88°
2026-05-07 14:41 53.63280 10.00360 55 ft 2 kts 87°
2026-05-07 14:41 53.63280 10.00363 55 ft 0 kts 87°